When you browse on this site, cookies collect data to enhance your experience and personalize the content and advertising you see.
Visit our Privacy Policy to learn more. By continuing to use the site, you agree to this use of cookies and data.
  • en France
  • Liste des pays
  • À 7 jours
  • Température de l'eau
  • Carte satellitaire
  • Carte météo
  • Widgets météo
  • user-avatar
    Se connecter

    Météo par heure à Townsville

    Ce jour, 23 Janvier, Mercredi

    Heure Température Précipitation Vent Pression Humidité
    00:00 +27°C° 0.1 mm 4 m/s 752 mmHg 86%
    01:00 +26°C° 0.1 mm 4 m/s 752 mmHg 87%
    02:00 +26°C° 0.1 mm 4 m/s 751 mmHg 88%
    03:00 +26°C° 0.1 mm 4 m/s 751 mmHg 88%
    04:00 +26°C° 0 mm 4 m/s 751 mmHg 88%
    05:00 +26°C° 0.1 mm 4 m/s 751 mmHg 87%
    06:00 +27°C° 0.1 mm 4 m/s 751 mmHg 85%
    07:00 +27°C° 0.1 mm 4 m/s 751 mmHg 84%
    08:00 +28°C° 0.2 mm 4 m/s 751 mmHg 77%
    09:00 +30°C° 0.2 mm 4 m/s 752 mmHg 70%
    10:00 +32°C° 0 mm 5 m/s 752 mmHg 66%
    11:00 +33°C° 0.3 mm 5 m/s 751 mmHg 64%
    12:00 +33°C° 0.3 mm 6 m/s 751 mmHg 63%
    13:00 +34°C° 0.3 mm 6 m/s 750 mmHg 61%
    14:00 +34°C° 0.3 mm 6 m/s 750 mmHg 62%
    15:00 +33°C° 0.3 mm 6 m/s 750 mmHg 62%
    16:00 +33°C° 0 mm 6 m/s 750 mmHg 63%
    17:00 +32°C° 0.3 mm 5 m/s 750 mmHg 68%
    18:00 +30°C° 0.3 mm 5 m/s 750 mmHg 72%
    19:00 +29°C° 0.3 mm 5 m/s 750 mmHg 77%
    20:00 +29°C° 0.1 mm 4 m/s 750 mmHg 80%
    21:00 +28°C° 0.1 mm 4 m/s 751 mmHg 83%
    22:00 +28°C° 0 mm 3 m/s 751 mmHg 85%
    23:00 +28°C° 0 mm 3 m/s 751 mmHg 86%

    Demain, 24 Janvier, Jeudi

    Heure Température Précipitation Vent Pression Humidité
    00:00 +28°C° 0 mm 3 m/s 751 mmHg 87%
    01:00 +28°C° 0 mm 3 m/s 750 mmHg 88%
    02:00 +27°C° 0 mm 3 m/s 750 mmHg 88%
    03:00 +27°C° 0 mm 3 m/s 750 mmHg 89%
    04:00 +27°C° 0 mm 3 m/s 750 mmHg 90%
    05:00 +27°C° 0 mm 3 m/s 750 mmHg 88%
    06:00 +28°C° 0 mm 3 m/s 750 mmHg 86%
    07:00 +28°C° 0 mm 3 m/s 751 mmHg 85%
    08:00 +29°C° 0 mm 3 m/s 751 mmHg 79%
    09:00 +30°C° 0 mm 4 m/s 751 mmHg 73%
    10:00 +32°C° 0 mm 4 m/s 751 mmHg 68%
    11:00 +33°C° 0.1 mm 4 m/s 750 mmHg 65%
    12:00 +34°C° 0.1 mm 5 m/s 750 mmHg 62%
    13:00 +34°C° 0.1 mm 5 m/s 749 mmHg 59%
    14:00 +34°C° 0 mm 5 m/s 749 mmHg 60%
    15:00 +34°C° 0 mm 6 m/s 749 mmHg 61%
    16:00 +33°C° 0 mm 6 m/s 749 mmHg 62%
    17:00 +32°C° 0 mm 5 m/s 749 mmHg 67%
    18:00 +30°C° 0 mm 5 m/s 749 mmHg 73%
    19:00 +29°C° 0 mm 5 m/s 750 mmHg 78%
    20:00 +29°C° 0 mm 5 m/s 750 mmHg 80%
    21:00 +28°C° 0 mm 5 m/s 751 mmHg 82%
    22:00 +28°C° 0 mm 6 m/s 751 mmHg 83%
    23:00 +28°C° 0.1 mm 5 m/s 751 mmHg 84%

    Après-demain, 25 Janvier, Vendredi

    Heure Température Précipitation Vent Pression Humidité
    00:00 +28°C° 0.1 mm 5 m/s 751 mmHg 84%
    01:00 +28°C° 0.1 mm 5 m/s 750 mmHg 84%
    02:00 +28°C° 0.3 mm 5 m/s 750 mmHg 85%
    03:00 +27°C° 0.3 mm 5 m/s 750 mmHg 85%
    04:00 +27°C° 0.3 mm 4 m/s 750 mmHg 85%
    05:00 +27°C° 0.2 mm 5 m/s 750 mmHg 85%
    06:00 +27°C° 0.2 mm 5 m/s 750 mmHg 84%
    07:00 +28°C° 0.2 mm 5 m/s 750 mmHg 83%
    08:00 +29°C° 0.2 mm 6 m/s 750 mmHg 79%
    09:00 +29°C° 0.2 mm 6 m/s 750 mmHg 74%
    10:00 +30°C° 0.2 mm 6 m/s 750 mmHg 69%
    11:00 +32°C° 0.1 mm 6 m/s 750 mmHg 68%
    12:00 +32°C° 0.1 mm 6 m/s 750 mmHg 66%
    13:00 +32°C° 0.1 mm 6 m/s 750 mmHg 65%
    14:00 +32°C° 0 mm 6 m/s 749 mmHg 65%
    15:00 +32°C° 0 mm 7 m/s 749 mmHg 65%
    16:00 +32°C° 0 mm 7 m/s 748 mmHg 66%
    17:00 +30°C° 0.1 mm 6 m/s 748 mmHg 69%
    18:00 +29°C° 0.1 mm 6 m/s 749 mmHg 73%
    19:00 +28°C° 0.1 mm 6 m/s 749 mmHg 77%
    20:00 +28°C° 0.5 mm 7 m/s 749 mmHg 79%
    21:00 +28°C° 0.5 mm 7 m/s 750 mmHg 81%
    22:00 +28°C° 0.5 mm 7 m/s 750 mmHg 83%
    23:00 +28°C° 0.6 mm 8 m/s 749 mmHg 84%

    26 Janvier, Samedi

    Heure Température Précipitation Vent Pression Humidité
    00:00 +28°C° 0.6 mm 8 m/s 749 mmHg 85%
    01:00 +27°C° 0.6 mm 9 m/s 748 mmHg 86%
    02:00 +27°C° 0.2 mm 9 m/s 748 mmHg 85%
    03:00 +27°C° 0.2 mm 9 m/s 747 mmHg 85%
    04:00 +27°C° 0.2 mm 9 m/s 747 mmHg 84%
    05:00 +28°C° 0.2 mm 10 m/s 747 mmHg 83%
    06:00 +28°C° 0.2 mm 10 m/s 747 mmHg 83%
    07:00 +28°C° 0.2 mm 11 m/s 747 mmHg 82%
    08:00 +28°C° 4.2 mm 11 m/s 747 mmHg 84%
    09:00 +28°C° 4.2 mm 11 m/s 747 mmHg 85%
    10:00 +27°C° 4.2 mm 11 m/s 747 mmHg 87%
    11:00 +27°C° 13.6 mm 10 m/s 747 mmHg 89%
    12:00 +27°C° 13.6 mm 10 m/s 747 mmHg 91%
    13:00 +27°C° 13.6 mm 9 m/s 746 mmHg 93%
    14:00 +27°C° 5.3 mm 9 m/s 746 mmHg 93%
    15:00 +27°C° 5.3 mm 9 m/s 746 mmHg 92%
    16:00 +27°C° 5.3 mm 8 m/s 745 mmHg 92%
    17:00 +27°C° 2.4 mm 8 m/s 746 mmHg 92%
    18:00 +26°C° 2.4 mm 8 m/s 746 mmHg 91%
    19:00 +26°C° 2.4 mm 8 m/s 747 mmHg 91%
    20:00 +26°C° 2.1 mm 9 m/s 747 mmHg 90%
    21:00 +26°C° 2.1 mm 10 m/s 748 mmHg 90%
    22:00 +26°C° 2.1 mm 10 m/s 748 mmHg 89%
    23:00 +26°C° 0.7 mm 10 m/s 748 mmHg 89%

    27 Janvier, Dimanche

    Heure Température Précipitation Vent Pression Humidité
    00:00 +27°C° 0.7 mm 10 m/s 747 mmHg 89%
    01:00 +27°C° 0.7 mm 10 m/s 747 mmHg 88%
    02:00 +27°C° 0.9 mm 9 m/s 747 mmHg 88%
    03:00 +27°C° 0.9 mm 8 m/s 746 mmHg 88%
    04:00 +27°C° 0.9 mm 7 m/s 746 mmHg 88%
    05:00 +27°C° 0.8 mm 6 m/s 746 mmHg 88%
    06:00 +27°C° 0.8 mm 6 m/s 747 mmHg 88%
    07:00 +27°C° 0.8 mm 5 m/s 748 mmHg 89%
    08:00 +28°C° 0.4 mm 5 m/s 748 mmHg 87%
    09:00 +29°C° 0.4 mm 5 m/s 748 mmHg 85%
    10:00 +29°C° 0.4 mm 5 m/s 748 mmHg 83%
    11:00 +30°C° 0.6 mm 5 m/s 748 mmHg 80%
    12:00 +30°C° 0.6 mm 5 m/s 748 mmHg 76%
    13:00 +32°C° 0.6 mm 5 m/s 747 mmHg 73%
    14:00 +32°C° 0.1 mm 5 m/s 747 mmHg 73%
    15:00 +32°C° 0.1 mm 6 m/s 747 mmHg 74%
    16:00 +32°C° 0.1 mm 6 m/s 746 mmHg 74%
    17:00 +30°C° 0 mm 6 m/s 747 mmHg 78%
    18:00 +29°C° 0 mm 6 m/s 747 mmHg 83%
    19:00 +29°C° 0 mm 5 m/s 748 mmHg 87%
    20:00 +28°C° 0.1 mm 5 m/s 749 mmHg 89%
    21:00 +28°C° 0.1 mm 4 m/s 749 mmHg 90%
    22:00 +28°C° 0.1 mm 3 m/s 750 mmHg 92%
    23:00 +28°C° 0.2 mm 3 m/s 749 mmHg 91%

    28 Janvier, Lundi

    Heure Température Précipitation Vent Pression Humidité
    00:00 +28°C° 0.2 mm 4 m/s 749 mmHg 91%
    01:00 +28°C° 0.2 mm 4 m/s 749 mmHg 90%
    02:00 +28°C° 0.3 mm 4 m/s 749 mmHg 91%
    03:00 +28°C° 0.3 mm 4 m/s 748 mmHg 91%
    04:00 +27°C° 0.3 mm 4 m/s 748 mmHg 91%
    05:00 +28°C° 0.3 mm 4 m/s 749 mmHg 90%
    06:00 +28°C° 0.3 mm 5 m/s 749 mmHg 90%
    07:00 +28°C° 0.3 mm 5 m/s 750 mmHg 90%
    08:00 +28°C° 0.8 mm 5 m/s 750 mmHg 87%
    09:00 +29°C° 0.8 mm 6 m/s 750 mmHg 85%
    10:00 +29°C° 0.8 mm 6 m/s 750 mmHg 83%
    11:00 +30°C° 1.3 mm 6 m/s 750 mmHg 81%
    12:00 +30°C° 1.3 mm 6 m/s 749 mmHg 79%
    13:00 +32°C° 1.3 mm 7 m/s 749 mmHg 77%
    14:00 +32°C° 0.4 mm 7 m/s 749 mmHg 77%
    15:00 +32°C° 0.4 mm 7 m/s 749 mmHg 77%
    16:00 +32°C° 0.4 mm 7 m/s 748 mmHg 77%
    17:00 +30°C° 0.9 mm 7 m/s 749 mmHg 81%
    18:00 +29°C° 0.9 mm 6 m/s 749 mmHg 84%
    19:00 +28°C° 0.9 mm 6 m/s 750 mmHg 88%
    20:00 +28°C° 1 mm 6 m/s 750 mmHg 88%
    21:00 +28°C° 1 mm 6 m/s 751 mmHg 89%
    22:00 +28°C° 1 mm 6 m/s 751 mmHg 89%
    23:00 +27°C° 0.5 mm 6 m/s 751 mmHg 89%
    Voir plus